Miscellaneous Local Product
Issued by NWS North Platte, NE

Home | Current Version | Previous Version | Graphics & Text | Print | Product List | Glossary On
Versions: 1 2 3 4 5 6 7 8 9 10 11 12 13 14 15 16 17 18 19 20 21 22 23 24 25 26 27 28 29 30 31 32 33 34 35 36 37 38 39 40 41 42 43 44 45 46 47 48 49 50
178
AXUS43 KLBF 120210
MISLBF


WESTERN AND NORTH CENTRAL NEBRASKA HOURLY WEATHER ROUNDUP
NATIONAL WEATHER SERVICE NORTH PLATTE NE
800 PM CST THU FEB 11 2016

NOTE: "FAIR" INDICATES FEW OR NO CLOUDS BELOW 12,000 FEET WITH NO
SIGNIFICANT WEATHER AND/OR OBSTRUCTIONS TO VISIBILITY.

NOTE: STATIONS NOT REPORTING VARIABLES SUCH AS SKY/WEATHER OR
PRESSURE ARE PROVIDED BY THE NEBRASKA DEPARTMENT OF
ROADS...RAWS...AND APRS NETWORKS...AND ARE NOT UNDER
NATIONAL WEATHER SERVICE QUALITY CONTROL.

...OBSERVATIONS IN AND NEAR THE EASTERN PANHANDLE OF NEBRASKA...

CITY           SKY/WX    TMP DP  RH WIND       PRES   REMARKS
PINE RIDGE     CLEAR     41  30  65 N6        30.16R
CHADRON        CLOUDY    39  26  59 NW5       30.18R
ALLIANCE       CLOUDY    41  27  57 NW13      30.16R
SIDNEY         CLOUDY    37  29  72 NW10      30.20R WCI  30
CRESCENT LAKE    N/A     42  28  56 NW12        N/A
BIG SPRINGS      N/A     38  32  79 W5          N/A  WCI  34
$$

...OBSERVATIONS IN NORTH CENTRAL NEBRASKA...

CITY           SKY/WX    TMP DP  RH WIND       PRES   REMARKS
VALENTINE      CLOUDY    31  28  89 NE10      30.16R WCI  22
THEDFORD       CLOUDY    42  32  69 N8        30.14R
AINSWORTH      CLEAR     31  28  89 N6        30.15R WCI  25
O`NEILL        FOG       28  27  97 NE8       30.15R VSB 1   WCI  20
ORD            CLEAR     29  27  92 N6        30.10R WCI  23
BROKEN BOW     CLOUDY    39  31  72 N14       30.11R WCI  31
VALENTINE NWR    N/A     38  30  73 N12G18      N/A  WCI  30
BUTTE            N/A     24  23  95 N9          N/A  WCI  14
HALSEY           N/A     45  32  59 NW7         N/A
CHAMBERS         N/A     29  27  90 N6          N/A  WCI  23
EWING            N/A     27  25  93 E3          N/A
$$

...OBSERVATIONS IN SOUTHWEST NEBRASKA AND FAR NORTHEAST COLORADO...

CITY           SKY/WX    TMP DP  RH WIND       PRES   REMARKS
HOLYOKE        FAIR      46  30  53 NW9       30.19R
IMPERIAL       CLOUDY    45  31  58 NW14      30.16R
OGALLALA       CLOUDY    36  29  76 NW5       30.16R WCI  32
NORTH PLATTE   CLEAR     35  27  72 N6        30.12R WCI  30
MCCOOK         CLOUDY    37  31  78 W7        30.13R WCI  32
LEXINGTON      CLOUDY    32  29  88 W3        30.12R
PAXTON           N/A     40  33  76 CALM        N/A
STAPLETON        N/A     41  32  69 CALM        N/A
GOTHENBURG       N/A     38  31  74 CALM        N/A
CALLAWAY         N/A     35  32  89 N5          N/A  WCI  31
$$

...OBSERVATIONS IN CENTRAL LINCOLN COUNTY AREA...

CITY           SKY/WX    TMP DP  RH WIND       PRES   REMARKS
N.P. AIRPORT   CLEAR     35  27  72 N6        30.12R WCI  30
N.P. DOWNTOWN    N/A     44  30  59 NW3         N/A
N.P. SOUTHEAST   N/A     46  32  58 N3          N/A
N.P. HILLCREST   N/A     45  33  62 N7          N/A
$$

...SOME OBSERVATIONS FROM AROUND THE REGION...

CITY           SKY/WX    TMP DP  RH WIND       PRES   REMARKS
DENVER         CLOUDY    40  27  59 SE14      30.24R WCI  32
LARAMIE        CLOUDY    39  23  52 W16       30.27R WCI  30
CHEYENNE       CLOUDY    43  24  47 N13G22    30.24R
SCOTTSBLUFF    CLOUDY    41  26  55 CALM      30.20R
RAPID CITY     CLOUDY    35  30  82 N16       30.17R WCI  25
BISMARCK       CLOUDY    23  15  71 N10       30.28R WCI  12
PIERRE         CLOUDY    27  24  89 N3        30.21R
WINNER         CLOUDY    29  25  85 N8        30.19R WCI  21
SIOUX FALLS    FLURRIES  12   9  87 CALM      30.20R
OMAHA          CLOUDY    26  19  74 N7        30.21R WCI  18
KANSAS CITY    CLOUDY    33  21  61 E7        30.20R WCI  27
WICHITA        PTCLDY    39  26  59 W5        30.16R
OKLAHOMA CITY  CLOUDY    49  31  49 N6        30.16R
LIBERAL        CLOUDY    46  25  42 CALM      30.12R
HAYS           CLOUDY    36  25  64 NE8       30.15R WCI  29
GOODLAND       CLOUDY    37  28  70 NW7       30.20R WCI  32
$$




USA.gov is the U.S. government's official web portal to all federal, state and local government web resources and services.